Location: Godzisko
(49.9648°N, 19.4576°E)
Time: 07:38:35
(UTC+00:00)

Cosmos 2150 Rocket - Pass Details

Date: 20 April 2021
Orbit: 749 x 807 km, 74.0° (Epoch: 06 May)

Event Time Altitude Azimuth Distance (km) Brightness Sun altitude
Exits shadow 02:54:38 - 202° (SSW) 3,238 6.8 -7.4°
Reaches altitude 10° 02:56:51 10° 203° (SSW) 2,383 6.1 -7.1°
Maximum altitude 03:02:18 88° 291° (WNW) 811 4.2 -6.3°
Drops below altitude 10° 03:07:45 10° 24° (NNE) 2,378 7.4 -5.5°
Sets 03:10:08 0° 24° (NNE) 3,304 8.1 -5.2°
